Wind_Speed
22 21 19 18 16 15 12 9 7 5 4 3 2 3 5 6 8 10 11 12 13 14 15 15 14 14 14 14 14 14 14 13 13 12 10 10 8 7 6 5 3 2 2 2
23 22 21 21 20 18 15 12 9 8 7 6 4 3 3 4 6 8 10 10 11 12 13 13 13 13 14 14 13 13 13 13 13 12 11 10 9 8 7 6 4 4 3 2
25 22 24 24 23 21 18 15 13 12 10 9 7 5 4 4 5 6 8 9 9 10 11 11 11 12 12 13 13 13 13 12 12 12 12 11 10 9 8 7 6 5 3 2
27 25 25 25 25 24 21 18 17 16 14 12 11 9 7 5 5 6 7 8 8 8 9 10 10 10 11 12 13 13 13 12 12 12 12 11 10 9 8 8 7 7 5 3
28 26 26 27 26 25 23 21 20 19 18 16 14 13 10 8 7 8 8 7 7 7 8 8 9 10 10 11 11 12 13 12 12 12 11 11 11 10 9 8 7 6 6 5
30 29 28 27 27 27 25 23 22 21 20 19 17 16 12 11 9 9 8 8 7 7 7 7 7 9 9 10 10 10 11 12 12 12 11 11 11 10 9 8 8 6 7 6
31 31 29 28 28 27 26 25 25 24 23 21 19 19 15 13 12 10 9 8 7 7 7 7 7 8 9 9 9 9 10 10 11 11 11 11 10 10 10 9 8 7 7 8
33 32 31 30 29 29 27 27 27 26 25 22 22 22 18 16 14 12 11 10 9 8 7 7 8 8 8 8 8 9 10 10 10 10 11 11 10 10 9 10 9 9 8 9
34 33 32 31 31 30 30 29 28 28 27 26 25 24 21 18 16 14 13 11 10 10 9 8 8 8 8 8 8 9 9 9 10 10 11 11 11 10 10 10 10 10 10 10
34 34 33 33 32 33 32 30 30 30 30 29 27 26 24 21 19 17 15 13 12 11 11 10 9 9 8 8 9 10 10 10 10 10 11 11 11 11 10 10 11 12 11 11
34 34 32 33 34 34 34 33 33 32 32 30 29 26 23 21 21 18 17 15 14 13 12 12 11 9 8 9 9 10 11 11 10 10 11 11 11 11 12 12 11 12 12 11
34 34 33 34 34 35 36 36 35 34 32 31 31 28 24 23 21 19 18 17 16 15 14 13 13 11 11 11 11 12 13 13 12 11 11 13 13 13 14 14 13 13 13 12
33 34 34 34 35 36 37 37 36 35 35 34 32 30 25 25 23 22 21 20 19 18 16 15 14 14 14 13 14 15 15 14 15 13 13 14 15 15 15 16 16 16 16 14
34 35 35 34 34 34 36 37 37 36 36 35 34 31 28 26 25 24 23 22 22 21 20 19 17 16 16 15 17 18 18 18 17 14 14 15 16 17 17 18 18 18 17 16
36 37 36 35 34 35 35 36 36 37 37 36 35 33 30 28 27 26 25 25 24 23 21 21 20 18 17 17 18 20 20 20 18 16 16 17 18 19 19 20 20 20 20 18
38 38 38 37 37 37 37 38 38 38 38 37 37 35 33 31 30 29 28 27 26 25 23 22 21 21 20 20 20 21 21 21 20 19 18 18 19 21 21 22 22 21 20 19
41 40 40 40 39 40 41 40 40 40 39 39 39 38 36 35 33 33 31 30 30 28 27 25 25 24 23 23 22 22 22 22 23 22 21 20 21 22 23 23 22 22 21 21
41 41 42 41 41 43 41 41 41 41 41 41 41 40 39 37 36 34 33 32 32 31 30 29 28 27 27 27 26 25 25 25 25 25 25 24 24 25 25 25 24 24 24 23
40 40 41 42 42 43 42 41 41 41 42 41 40 40 40 39 37 37 36 35 34 33 32 31 31 30 29 30 30 29 29 28 28 28 28 28 28 27 27 26 26 26 27 26
39 39 40 41 42 43 42 41 41 41 42 42 41 40 40 40 39 37 37 37 37 36 36 35 34 33 33 32 32 32 31 31 31 30 30 31 30 29 28 28 28 29 29 28
39 40 41 41 42 43 42 42 41 42 42 41 41 41 40 40 39 38 37 38 39 39 38 37 36 36 36 36 36 35 34 33 33 34 35 33 32 31 30 30 29 30 30 30
40 41 42 42 42 42 42 42 43 42 42 42 42 42 42 41 40 39 39 39 39 40 39 38 39 39 39 39 37 36 36 36 37 38 37 34 34 34 33 31 31 32 32 31
39 40 42 42 42 42 42 43 43 43 43 43 43 43 43 43 43 42 42 41 40 41 40 40 41 41 42 41 39 37 37 38 39 40 39 39 37 35 34 33 33 33 34 33
37 38 40 41 41 42 42 43 43 44 44 44 45 44 44 44 44 44 45 44 43 42 43 43 43 44 45 44 42 40 40 39 40 41 41 40 38 36 36 35 34 35 35 35
36 38 39 40 41 42 41 42 43 43 44 44 45 45 46 46 46 45 45 46 46 45 45 45 46 46 46 44 43 43 43 43 42 41 40 39 39 36 35 36 37 35 35 35
35 37 38 38 39 40 40 41 42 43 43 44 44 45 45 45 45 45 45 45 46 47 47 46 46 47 47 45 43 43 44 43 42 41 40 38 37 36 36 37 37 37 35 35
Wind_Direction
217 217 217 216 219 224 227 227 228 235 259 286 336 22 35 29 27 25 20 19 21 23 28 31 32 32 33 33 34 35 35 35 36 35 34 32 30 27 19 8 349 343 310 278
219 220 221 219 222 227 231 231 232 238 250 263 270 304 344 2 11 12 10 12 16 19 22 25 27 27 28 29 29 30 30 31 31 31 31 30 30 26 19 14 2 350 339 343
224 223 222 222 224 227 232 234 234 238 244 256 264 272 291 320 344 354 359 2 6 11 12 15 20 22 24 25 25 25 27 29 27 26 28 30 29 27 23 19 17 16 8 17
226 224 225 224 225 229 232 236 237 239 241 247 260 264 272 286 309 327 338 346 353 356 358 2 11 17 19 20 21 22 23 25 25 25 26 28 29 29 28 27 25 27 29 21
226 226 227 226 227 230 232 236 241 242 244 247 253 262 263 273 290 307 315 324 336 340 344 352 360 6 11 14 15 16 17 20 22 24 24 24 26 27 26 24 20 22 24 17
227 228 228 227 228 231 233 236 241 245 247 248 250 255 260 268 278 290 297 305 316 327 334 342 347 353 358 3 5 7 10 13 16 18 19 19 22 22 21 20 18 16 7 360
227 228 229 229 229 232 233 236 241 245 248 248 248 251 256 263 267 276 284 292 306 313 324 335 337 336 340 349 351 354 1 4 7 9 13 17 17 16 17 13 9 4 357 350
228 228 229 230 231 232 234 237 242 247 249 247 248 251 253 256 260 266 273 283 291 295 308 320 327 327 332 335 337 341 346 351 357 359 2 7 8 7 7 6 1 353 345 340
230 228 229 231 231 231 233 236 242 248 251 249 248 251 250 253 255 260 266 272 281 289 295 310 323 323 325 324 328 334 336 338 345 347 349 353 357 356 355 352 352 349 342 337
232 230 228 231 231 231 233 236 240 245 251 252 251 249 249 250 254 256 261 263 269 281 285 293 302 309 311 315 321 326 327 329 334 338 340 341 342 342 342 341 341 342 338 332
233 232 228 229 231 231 233 235 239 244 250 253 254 252 252 253 254 256 257 257 263 274 282 288 293 298 301 308 313 319 320 321 323 326 329 331 329 329 330 330 333 336 335 328
235 235 232 231 232 233 234 237 239 243 248 251 254 255 253 253 254 254 253 254 259 265 274 282 285 289 293 300 303 307 310 314 318 319 321 324 324 321 324 323 321 325 331 329
235 237 237 234 233 234 235 236 239 243 247 249 252 255 254 255 254 254 253 254 259 262 265 271 276 281 288 295 299 301 301 304 310 308 314 316 317 316 316 319 319 318 321 320
238 239 240 238 237 236 237 237 239 241 244 248 251 255 254 254 254 254 254 256 260 262 263 268 273 278 283 290 297 301 300 300 306 304 306 308 308 311 310 314 317 317 321 321
241 241 241 240 239 238 238 239 240 243 245 249 251 253 253 254 255 253 254 256 259 258 260 263 268 273 278 285 292 297 297 299 299 300 302 304 303 306 309 311 308 311 314 316
241 243 243 242 241 241 240 240 241 243 246 249 250 252 253 254 254 253 254 256 258 256 256 260 264 267 274 281 286 291 294 295 296 297 299 300 301 302 305 305 305 303 306 308
241 243 245 245 244 244 244 243 244 246 248 249 251 252 252 253 254 254 255 255 255 255 257 259 262 266 273 278 282 286 289 291 294 292 293 294 296 299 302 304 304 301 301 302
243 245 246 248 247 247 248 247 248 249 250 251 252 252 253 254 253 253 253 253 254 255 256 259 260 265 271 275 277 280 284 288 290 290 290 289 292 295 296 298 299 298 298 299
244 245 246 247 248 249 248 248 249 250 250 251 252 253 253 253 254 252 251 252 253 253 255 258 260 262 267 272 275 278 281 284 287 287 286 287 288 291 293 292 293 293 294 295
243 244 246 247 248 249 249 250 251 252 252 251 252 252 252 252 253 253 253 252 252 252 254 256 259 261 264 269 271 274 278 282 283 283 284 283 284 287 289 291 291 291 292 292
244 244 245 248 250 250 250 250 251 252 253 253 253 253 251 250 251 251 251 252 251 253 254 256 258 260 264 267 268 271 276 280 282 282 284 282 283 283 284 287 289 289 290 290
245 246 247 249 250 251 251 251 252 253 253 253 253 254 253 251 251 252 252 252 252 252 254 255 257 260 262 265 267 269 275 277 278 281 281 280 281 280 280 283 287 288 289 291
246 246 248 249 251 253 252 253 253 254 253 253 254 255 253 251 251 252 253 252 252 252 253 255 258 258 260 261 263 266 271 274 276 279 280 281 280 280 281 282 284 286 288 289
247 248 248 249 250 252 254 254 254 255 256 254 254 254 253 253 252 253 253 253 253 254 254 254 256 258 259 260 262 265 268 270 273 275 277 279 281 282 281 281 282 284 287 288
248 248 249 250 251 252 254 256 256 256 257 256 255 255 255 255 255 254 253 253 253 253 255 255 256 257 256 260 263 266 268 271 273 275 279 280 282 283 283 282 283 284 287 289
248 250 251 251 253 254 255 257 258 258 258 258 257 256 257 257 257 255 255 256 255 255 256 257 259 259 260 261 264 265 269 270 272 276 281 281 281 282 284 286 285 286 287 287
Height
5915 5918 5920 5922 5924 5925 5926 5927 5928 5928 5928 5928 5928 5928 5928 5927 5927 5926 5925 5923 5922 5920 5918 5916 5914 5912 5910 5908 5906 5904 5902 5900 5898 5896 5895 5893 5892 5890 5889 5888 5887 5887 5887 5887
5913 5915 5918 5919 5921 5922 5924 5925 5926 5927 5927 5927 5927 5928 5928 5927 5927 5927 5926 5924 5923 5921 5919 5918 5916 5914 5911 5909 5907 5905 5903 5901 5899 5897 5896 5894 5892 5891 5890 5888 5888 5887 5887 5887
5909 5913 5914 5916 5918 5920 5922 5923 5924 5925 5925 5925 5926 5927 5927 5927 5927 5927 5926 5925 5923 5922 5920 5919 5917 5915 5913 5911 5909 5907 5904 5902 5901 5899 5897 5895 5893 5892 5891 5889 5888 5887 5887 5887
5905 5908 5910 5913 5915 5917 5919 5921 5922 5923 5923 5924 5925 5926 5927 5926 5927 5926 5926 5925 5923 5922 5920 5919 5917 5915 5914 5912 5910 5908 5906 5904 5902 5900 5898 5896 5895 5893 5892 5890 5889 5888 5887 5887
5900 5904 5906 5909 5912 5914 5916 5917 5918 5920 5921 5922 5923 5923 5925 5925 5926 5926 5925 5924 5923 5922 5920 5919 5917 5916 5914 5913 5911 5909 5907 5905 5903 5901 5899 5898 5896 5894 5893 5892 5890 5889 5888 5888
5896 5899 5902 5905 5908 5910 5912 5914 5915 5916 5917 5919 5920 5921 5923 5923 5924 5924 5924 5923 5922 5921 5920 5918 5917 5916 5914 5913 5911 5910 5908 5906 5904 5902 5900 5898 5897 5895 5894 5893 5891 5890 5889 5888
5891 5894 5897 5900 5903 5905 5908 5910 5911 5912 5913 5915 5917 5917 5920 5921 5921 5921 5921 5921 5921 5920 5919 5918 5916 5915 5914 5913 5911 5910 5908 5907 5904 5902 5901 5899 5897 5896 5895 5893 5892 5890 5889 5888
5885 5889 5892 5895 5898 5901 5903 5906 5908 5909 5910 5912 5913 5914 5917 5918 5918 5919 5919 5919 5919 5918 5918 5917 5915 5914 5913 5912 5911 5910 5908 5907 5905 5903 5901 5899 5898 5896 5895 5893 5892 5890 5889 5887
5879 5884 5887 5890 5892 5895 5898 5900 5902 5904 5905 5907 5908 5910 5913 5914 5916 5916 5916 5917 5916 5916 5916 5915 5914 5913 5912 5910 5909 5909 5907 5906 5904 5903 5901 5900 5898 5896 5894 5893 5891 5890 5888 5887
5873 5878 5882 5884 5887 5889 5892 5895 5897 5898 5900 5901 5903 5905 5909 5911 5912 5913 5914 5914 5914 5913 5913 5913 5912 5911 5910 5909 5908 5908 5907 5905 5904 5902 5900 5899 5897 5895 5893 5892 5890 5888 5887 5885
5866 5871 5876 5878 5880 5883 5886 5889 5891 5893 5895 5897 5898 5902 5904 5906 5907 5909 5910 5911 5911 5911 5911 5910 5910 5909 5908 5907 5907 5906 5905 5904 5902 5900 5899 5897 5895 5894 5892 5890 5888 5887 5885 5883
5860 5864 5868 5872 5875 5877 5880 5882 5885 5888 5889 5891 5893 5898 5899 5901 5903 5904 5905 5906 5907 5907 5908 5907 5907 5906 5906 5905 5904 5904 5903 5901 5900 5898 5897 5896 5894 5892 5890 5888 5886 5884 5882 5881
5853 5856 5860 5864 5869 5871 5873 5876 5878 5881 5883 5885 5887 5892 5894 5895 5897 5899 5900 5901 5902 5903 5904 5904 5904 5903 5903 5902 5902 5901 5900 5898 5897 5896 5895 5893 5891 5889 5887 5885 5883 5881 5879 5877
5846 5849 5853 5857 5860 5863 5866 5869 5872 5874 5876 5878 5881 5884 5888 5889 5891 5893 5895 5896 5897 5898 5899 5899 5900 5899 5899 5899 5898 5897 5895 5893 5893 5892 5891 5889 5888 5886 5884 5883 5881 5878 5876 5874
5837 5841 5844 5848 5852 5855 5858 5862 5864 5867 5869 5872 5875 5877 5881 5883 5885 5887 5889 5890 5891 5892 5893 5894 5894 5895 5895 5895 5894 5893 5891 5890 5889 5888 5887 5885 5883 5882 5881 5879 5877 5875 5874 5872
5829 5832 5836 5840 5843 5846 5850 5853 5856 5859 5861 5864 5867 5870 5873 5875 5878 5880 5882 5883 5885 5886 5887 5888 5889 5889 5889 5889 5889 5888 5887 5886 5885 5884 5882 5880 5879 5878 5877 5875 5873 5872 5870 5867
5821 5824 5828 5831 5835 5837 5841 5845 5847 5850 5853 5856 5858 5862 5865 5867 5870 5872 5875 5876 5877 5879 5880 5881 5882 5883 5883 5883 5883 5882 5882 5880 5879 5878 5877 5876 5875 5873 5872 5869 5868 5866 5864 5863
5812 5815 5818 5821 5825 5828 5834 5836 5838 5841 5844 5846 5849 5852 5855 5858 5861 5864 5866 5868 5869 5871 5873 5874 5875 5875 5876 5876 5876 5875 5874 5874 5872 5871 5870 5869 5868 5867 5865 5863 5862 5860 5858 5857
5802 5806 5809 5811 5814 5818 5823 5826 5828 5831 5834 5837 5840 5842 5845 5848 5851 5854 5856 5858 5860 5862 5864 5865 5867 5867 5868 5868 5868 5868 5867 5866 5866 5865 5863 5862 5861 5859 5857 5856 5855 5853 5852 5850
5793 5796 5799 5802 5804 5808 5813 5816 5818 5822 5824 5827 5830 5832 5835 5837 5841 5844 5846 5848 5850 5852 5854 5855 5857 5858 5858 5859 5859 5859 5859 5858 5857 5856 5855 5854 5852 5851 5850 5848 5847 5846 5844 5842
5783 5786 5789 5792 5794 5798 5803 5806 5808 5812 5815 5817 5819 5821 5824 5826 5829 5833 5835 5837 5840 5842 5844 5845 5847 5848 5849 5849 5849 5849 5849 5848 5848 5847 5846 5844 5843 5843 5841 5839 5838 5837 5836 5834
5774 5776 5779 5782 5785 5790 5792 5794 5798 5800 5803 5805 5807 5810 5813 5816 5818 5821 5824 5826 5829 5831 5833 5835 5836 5837 5838 5838 5838 5838 5839 5839 5839 5837 5834 5834 5834 5833 5831 5830 5829 5829 5827 5825
5763 5767 5769 5773 5776 5778 5781 5783 5785 5788 5791 5793 5796 5798 5801 5804 5807 5810 5812 5815 5817 5820 5822 5824 5825 5827 5827 5827 5827 5827 5828 5829 5828 5827 5826 5825 5824 5823 5822 5821 5821 5820 5818 5816
5753 5756 5759 5762 5764 5767 5769 5771 5773 5776 5778 5781 5784 5787 5789 5792 5795 5798 5800 5803 5805 5808 5809 5811 5813 5814 5815 5816 5816 5816 5817 5817 5817 5816 5815 5814 5814 5813 5812 5811 5811 5809 5808 5806
5744 5746 5748 5751 5753 5756 5758 5760 5762 5764 5766 5769 5771 5774 5776 5779 5782 5785 5787 5790 5791 5793 5795 5797 5799 5801 5802 5802 5804 5805 5805 5805 5805 5805 5803 5803 5803 5803 5802 5801 5800 5799 5798 5796
5734 5736 5738 5741 5743 5745 5748 5749 5751 5752 5754 5756 5759 5761 5764 5766 5769 5772 5774 5776 5778 5780 5782 5783 5785 5787 5788 5789 5790 5793 5794 5794 5794 5794 5793 5793 5792 5792 5792 5791 5790 5788 5787 5785